This is the latest recevied weather packets stored in our database for station/object AG1T-20. If no packets are shown the sender has not sent any weather packets the latest 10 day(s).
| Time | Temp. | Humidity | Pressure | Rain* | Wind** | Luminosity | Snow |
|---|---|---|---|---|---|---|---|
| 1777746005 | 17.22° C | 36% | 1022.6 hPa | 0 mm | - | 957 W/m² | - |
| 1777745405 | 17.22° C | 37% | 1022.6 hPa | 0 mm | - | 963 W/m² | - |
| 1777744804 | 16.67° C | 38% | 1022.6 hPa | 0 mm | - | 895 W/m² | - |
| 1777744205 | 16.67° C | 39% | 1022.9 hPa | 0 mm | - | 994 W/m² | - |
| 1777743605 | 15.56° C | 39% | 1022.9 hPa | 0 mm | - | 950 W/m² | - |
| 1777743005 | 15° C | 43% | 1022.9 hPa | 0 mm | - | 966 W/m² | - |
| 1777742405 | 15° C | 43% | 1022.9 hPa | 0 mm | - | 980 W/m² | - |
| 1777741805 | 14.44° C | 43% | 1022.9 hPa | 0 mm | - | 971 W/m² | - |
| 1777741205 | 13.89° C | 46% | 1022.9 hPa | 0 mm | - | 947 W/m² | - |
| 1777740605 | 13.33° C | 47% | 1023.1 hPa | 0 mm | - | 930 W/m² | - |
| 1777740005 | 13.33° C | 48% | 1023.1 hPa | 0 mm | - | 931 W/m² | - |
| 1777739405 | 12.78° C | 47% | 1023.1 hPa | 0 mm | - | 913 W/m² | - |
| 1777738805 | 12.22° C | 46% | 1023.1 hPa | 0 mm | - | 902 W/m² | - |
| 1777738205 | 12.78° C | 47% | 1023.1 hPa | 0 mm | - | 890 W/m² | - |
| 1777737605 | 12.22° C | 50% | 1023.1 hPa | 0 mm | - | 876 W/m² | - |
| 1777737005 | 11.11° C | 48% | 1023.2 hPa | 0 mm | - | 853 W/m² | - |
| 1777736405 | 10.56° C | 55% | 1023.2 hPa | 0 mm | - | 825 W/m² | - |
| 1777735805 | 10° C | 52% | 1023.2 hPa | 0 mm | - | 776 W/m² | - |
| 1777735205 | 9.44° C | 50% | 1023.2 hPa | 0 mm | - | 747 W/m² | - |
| 1777734605 | 10° C | 49% | 1023.2 hPa | 0 mm | - | 712 W/m² | - |
| 1777734005 | 9.44° C | 50% | 1023.2 hPa | 0 mm | - | 762 W/m² | - |
| 1777733405 | 8.89° C | 52% | 1023.6 hPa | 0 mm | - | 702 W/m² | - |
| 1777732805 | 8.33° C | 61% | 1023.6 hPa | 0 mm | - | 638 W/m² | - |
| 1777732205 | 7.22° C | 63% | 1023.6 hPa | 0 mm | - | 573 W/m² | - |
| 1777731605 | 7.78° C | 62% | 1023.6 hPa | 0 mm | - | 596 W/m² | - |
* Rain latest hour (hover to see other rain measurements)
** Current wind speed in m/s (hover to see current wind gust speed)